Location: Unspecified
(53.6186°N, 1.3184°W)
Time: 08:25:28
(UTC+01:00)

ISS - Pass Details

Date: 17 September 2017
Orbit: 401 x 407 km, 51.6° (Epoch: 23 September)

Event Time Altitude Azimuth Distance (km) Brightness Sun altitude
Exits shadow 05:44:53 14° 256° (WSW) 1,279 -2.0 -9.2°
Maximum altitude 05:46:56 23° 210° (SSW) 928 -2.4 -8.9°
Drops below altitude 10° 05:49:35 10° 156° (SSE) 1,467 -0.9 -8.5°
Sets 05:51:55 0° 141° (SE) 2,324 0.4 -8.2°
